,,PA_Meas_PMT16A,,PR_Meas_QMR101_102,,RH_Meas_QMH101,,SR_Meas_QMS101,,TA_Meas_QMH101,,GenWind,,GenWind,
time,status,PA,status,PR,status,RH,status,SR,status,TA,status,DirAvg,status,SpdAvg,
2015-05-27, 00:00:04,VALID,920.062,VALID,0,VALID,98.3421,VALID,0,VALID,21.1868,VALID,336,VALID,0,
2015-05-27, 00:01:04,VALID,920.052,VALID,0,VALID,98.2735,VALID,0,VALID,21.1282,VALID,336,VALID,0,
2015-05-27, 00:02:04,VALID,920.043,VALID,0,VALID,98.2277,VALID,0,VALID,21.0876,VALID,336,VALID,0,
2015-05-27, 00:03:04,VALID,920.074,VALID,0,VALID,98.2277,VALID,0,VALID,21.0892,VALID,336,VALID,0,
2015-05-27, 00:04:04,VALID,920.06,VALID,0,VALID,98.2506,VALID,0,VALID,21.0486,VALID,7,VALID,0,
2015-05-27, 00:05:04,VALID,920.099,VALID,0,VALID,98.2353,VALID,0,VALID,20.9901,VALID,20,VALID,0,
2015-05-27, 00:06:04,VALID,920.083,VALID,0,VALID,98.243,VALID,0,VALID,20.9722,VALID,20,VALID,0,
2015-05-27, 00:07:04,VALID,920.094,VALID,0,VALID,98.2582,VALID,0,VALID,20.9722,VALID,20,VALID,0,
2015-05-27, 00:08:04,VALID,920.091,VALID,0,VALID,98.2887,VALID,0,VALID,20.9316,VALID,20,VALID,0,
2015-05-27, 00:09:04,VALID,920.105,VALID,0,VALID,98.3268,VALID,0,VALID,20.9511,VALID,20,VALID,0,
2015-05-27, 00:10:04,VALID,920.08,VALID,0,VALID,98.3573,VALID,0,VALID,20.9316,VALID,20,VALID,0,
2015-05-27, 00:11:04,VALID,920.078,VALID,0,VALID,98.3649,VALID,0,VALID,20.912,VALID,20,VALID,0,
2015-05-27, 00:12:04,VALID,920.086,VALID,0,VALID,98.3802,VALID,0,VALID,20.8925,VALID,20,VALID,0,
2015-05-27, 00:13:04,VALID,920.055,VALID,0,VALID,98.4259,VALID,0,VALID,20.8941,VALID,20,VALID,0,
2015-05-27, 00:14:04,VALID,920.019,VALID,0,VALID,98.4412,VALID,0,VALID,20.873,VALID,20,VALID,0,
2015-05-27, 00:15:04,VALID,919.992,VALID,0,VALID,98.4564,VALID,0,VALID,20.834,VALID,20,VALID,0,
2015-05-27, 00:16:04,VALID,919.959,VALID,0,VALID,98.4564,VALID,0,VALID,20.8145,VALID,20,VALID,0,
2015-05-27, 00:17:04,VALID,919.962,VALID,0,VALID,98.4869,VALID,0,VALID,20.795,VALID,20,VALID,0,
2015-05-27, 00:18:04,VALID,919.939,VALID,0,VALID,98.4793,VALID,0,VALID,20.7934,VALID,20,VALID,0,
2015-05-27, 00:19:04,VALID,919.943,VALID,0,VALID,98.4945,VALID,0,VALID,20.7739,VALID,20,VALID,0,
2015-05-27, 00:20:04,VALID,919.909,VALID,0,VALID,98.5022,VALID,0.107441,VALID,20.7739,VALID,20,VALID,0,
2015-05-27, 00:21:04,VALID,919.9,VALID,0,VALID,98.525,VALID,0,VALID,20.7755,VALID,20,VALID,0,
2015-05-27, 00:22:04,VALID,919.932,VALID,0,VALID,98.5555,VALID,0,VALID,20.7544,VALID,20,VALID,0,
2015-05-27, 00:23:04,VALID,919.914,VALID,0,VALID,98.5631,VALID,0,VALID,20.756,VALID,20,VALID,0,
2015-05-27, 07:13:04,VALID,918.443,VALID,0,VALID,97.2672,VALID,66.2912,VALID,20.0928,VALID,138,VALID,1.00664,
2015-05-27, 07:14:04,VALID,918.433,VALID,0,VALID,97.2443,VALID,67.473,VALID,20.1334,VALID,135,VALID,1.36523,
2015-05-27, 07:15:04,VALID,918.436,VALID,0,VALID,97.2367,VALID,68.44,VALID,20.1123,VALID,140,VALID,1.45195,
2015-05-27, 07:16:04,VALID,918.443,VALID,0,VALID,97.2062,VALID,69.5144,VALID,20.1529,VALID,153,VALID,0.922656,
2015-05-27, 07:17:04,VALID,918.439,VALID,0,VALID,97.1604,VALID,70.4814,VALID,20.1529,VALID,141,VALID,1.37383,
2015-05-27, 07:18:04,VALID,918.448,VALID,0,VALID,97.0994,VALID,71.6632,VALID,20.1724,VALID,128,VALID,0.876562,
2015-05-27, 07:19:04,VALID,918.436,VALID,0,VALID,97.0918,VALID,72.7377,VALID,20.2114,VALID,146,VALID,1.01797,
2015-05-27, 07:20:04,VALID,918.42,VALID,0,VALID,97.0385,VALID,74.027,VALID,20.1919,VALID,162,VALID,0.679297,
2015-05-27, 07:21:04,VALID,918.424,VALID,0,VALID,96.9622,VALID,75.4237,VALID,20.1903,VALID,172,VALID,0.990234,
2015-05-27, 07:22:04,VALID,918.411,VALID,0,VALID,96.9165,VALID,77.0353,VALID,20.2098,VALID,149,VALID,0.775781,
2015-05-27, 07:23:04,VALID,918.433,VALID,0,VALID,96.8784,VALID,78.6469,VALID,20.2504,VALID,161,VALID,0.892969,
2015-05-27, 07:24:04,VALID,918.433,VALID,0,VALID,96.7945,VALID,80.0437,VALID,20.2699,VALID,175,VALID,0.722266,
2015-05-27, 07:25:04,VALID,918.405,VALID,0,VALID,96.7564,VALID,81.5478,VALID,20.3089,VALID,169,VALID,0,
2015-05-27, 07:26:04,VALID,918.391,VALID,0,VALID,96.7183,VALID,83.2669,VALID,20.3479,VALID,157,VALID,0,
2015-05-27, 07:27:04,VALID,918.419,VALID,0,VALID,96.6344,VALID,84.986,VALID,20.3464,VALID,176,VALID,0.834375,
2015-05-27, 07:28:04,VALID,918.437,VALID,0,VALID,96.5201,VALID,86.8125,VALID,20.3838,VALID,159,VALID,1.05664,
2015-05-27, 07:29:04,VALID,918.44,VALID,0,VALID,96.2837,VALID,88.4241,VALID,20.4033,VALID,158,VALID,1.11172,
2015-05-27, 07:30:04,VALID,918.465,VALID,0,VALID,96.177,VALID,90.0357,VALID,20.4634,VALID,178,VALID,0.821875,
2015-05-27, 07:31:04,VALID,918.479,VALID,0,VALID,96.1846,VALID,91.6473,VALID,20.5219,VALID,181,VALID,0,
2015-05-27, 07:32:04,VALID,918.495,VALID,0,VALID,96.116,VALID,93.2589,VALID,20.5609,VALID,181,VALID,0.30625,
2015-05-27, 07:33:04,VALID,918.529,VALID,0,VALID,95.8721,VALID,94.978,VALID,20.5594,VALID,157,VALID,0.221875,
2015-05-27, 07:34:04,VALID,918.55,VALID,0,VALID,95.8187,VALID,96.4822,VALID,20.5984,VALID,181,VALID,0.425781,
2015-05-27, 07:35:04,VALID,918.58,VALID,0,VALID,95.6662,VALID,97.9863,VALID,20.5984,VALID,227,VALID,0.691016,
2015-05-27, 07:36:04,VALID,918.601,VALID,0,VALID,95.6739,VALID,99.5979,VALID,20.639,VALID,218,VALID,0.521875,
2015-05-27, 07:37:04,VALID,918.613,VALID,0,VALID,95.7349,VALID,100.995,VALID,20.5984,VALID,220,VALID,0.439844,
2015-05-27, 07:38:04,VALID,918.632,VALID,0,VALID,95.9026,VALID,102.606,VALID,20.6179,VALID,239,VALID,0,
2015-05-27, 07:39:04,VALID,918.635,VALID,0,VALID,95.9026,VALID,104.218,VALID,20.5984,VALID,235,VALID,0,
2015-05-27, 07:40:04,VALID,918.639,VALID,0,VALID,95.895,VALID,105.83,VALID,20.5789,VALID,235,VALID,0,
2015-05-27, 07:41:04,VALID,918.608,VALID,0,VALID,96.177,VALID,107.334,VALID,20.5204,VALID,235,VALID,0,
2015-05-27, 07:42:04,VALID,918.641,VALID,0,VALID,96.5048,VALID,109.053,VALID,20.5204,VALID,235,VALID,0,
2015-05-27, 07:43:04,VALID,918.661,VALID,0,VALID,96.6954,VALID,110.45,VALID,20.5219,VALID,235,VALID,0,
2015-05-27, 07:44:04,VALID,918.67,VALID,0,VALID,96.7183,VALID,111.954,VALID,20.5219,VALID,235,VALID,0,
2015-05-27, 07:45:04,VALID,918.684,VALID,0,VALID,96.6344,VALID,113.673,VALID,20.5609,VALID,235,VALID,0,
2015-05-27, 07:46:04,VALID,918.679,VALID,0,VALID,96.642,VALID,115.177,VALID,20.5999,VALID,223,VALID,0,
2015-05-27, 07:47:04,VALID,918.684,VALID,0,VALID,96.6878,VALID,116.896,VALID,20.639,VALID,219,VALID,0,
2015-05-27, 07:48:04,VALID,918.695,VALID,0,VALID,96.6649,VALID,118.615,VALID,20.678,VALID,210,VALID,0,
2015-05-27, 07:49:04,VALID,918.707,VALID,0,VALID,96.3142,VALID,120.334,VALID,20.6975,VALID,159,VALID,0,
2015-05-27, 07:50:04,VALID,918.716,VALID,0,VALID,96.0627,VALID,122.053,VALID,20.7365,VALID,157,VALID,0,
2015-05-27, 07:51:04,VALID,918.734,VALID,0,VALID,95.7577,VALID,123.772,VALID,20.7755,VALID,177,VALID,0,
2015-05-27, 07:52:04,VALID,918.747,VALID,0,VALID,95.4985,VALID,125.706,VALID,20.795,VALID,159,VALID,0,
2015-05-27, 07:53:04,VALID,918.762,VALID,0,VALID,95.3613,VALID,127.425,VALID,20.8535,VALID,166,VALID,0,
2015-05-27, 07:54:04,VALID,918.762,VALID,0,VALID,95.1783,VALID,129.252,VALID,20.8925,VALID,166,VALID,0,
2015-05-27, 07:55:04,VALID,918.768,VALID,0,VALID,94.8734,VALID,131.078,VALID,20.9105,VALID,166,VALID,0,
2015-05-27, 07:56:04,VALID,918.772,VALID,0,VALID,94.7133,VALID,133.012,VALID,20.9706,VALID,166,VALID,0,
2015-05-27, 07:57:04,VALID,918.797,VALID,0,VALID,94.6676,VALID,134.839,VALID,21.0096,VALID,166,VALID,0,
2015-05-27, 07:58:04,VALID,918.79,VALID,0,VALID,94.6295,VALID,136.558,VALID,21.0291,VALID,166,VALID,0,
2015-05-27, 07:59:04,VALID,918.775,VALID,0,VALID,94.4465,VALID,138.277,VALID,21.0876,VALID,194,VALID,0,
2015-05-27, 08:00:04,VALID,918.748,VALID,0,VALID,94.073,VALID,139.996,VALID,21.1071,VALID,190,VALID,0,
2015-05-27, 08:01:04,VALID,918.75,VALID,0,VALID,92.9371,VALID,141.93,VALID,21.1071,VALID,190,VALID,0,
2015-05-27, 08:02:04,VALID,918.746,VALID,0,VALID,93.1581,VALID,143.864,VALID,21.1266,VALID,176,VALID,0,
2015-05-27, 08:03:04,VALID,918.772,VALID,0,VALID,93.6918,VALID,145.798,VALID,21.1445,VALID,182,VALID,0,
2015-05-27, 08:04:04,VALID,918.757,VALID,0,VALID,93.8595,VALID,147.732,VALID,21.2047,VALID,182,VALID,0,
2015-05-27, 08:05:04,VALID,918.77,VALID,0,VALID,93.1429,VALID,149.88,VALID,21.2047,VALID,158,VALID,0,
2015-05-27, 08:06:04,VALID,918.777,VALID,0,VALID,92.6169,VALID,151.922,VALID,21.1852,VALID,168,VALID,0.93125,
2015-05-27, 08:07:04,VALID,918.787,VALID,0,VALID,93.3487,VALID,154.071,VALID,21.2242,VALID,168,VALID,0.618359,
2015-05-27, 08:08:04,VALID,918.798,VALID,0,VALID,92.8227,VALID,156.327,VALID,21.2242,VALID,153,VALID,1.00039,
2015-05-27, 08:09:04,VALID,918.806,VALID,0,VALID,92.9142,VALID,158.691,VALID,21.2047,VALID,168,VALID,0.95,
2015-05-27, 08:10:04,VALID,918.825,VALID,0,VALID,93.6537,VALID,161.162,VALID,21.164,VALID,163,VALID,0.611719,
2015-05-27, 08:11:04,VALID,918.836,VALID,0,VALID,94.1111,VALID,163.74,VALID,21.2031,VALID,158,VALID,0.969922,
2015-05-27, 08:12:04,VALID,918.849,VALID,0,VALID,94.1949,VALID,166.104,VALID,21.2437,VALID,166,VALID,0.866797,
2015-05-27, 08:13:04,VALID,918.855,VALID,0,VALID,93.8976,VALID,168.468,VALID,21.2811,VALID,169,VALID,0.880859,
2015-05-27, 08:14:04,VALID,918.844,VALID,0,VALID,93.0667,VALID,171.046,VALID,21.3396,VALID,158,VALID,0.948047,
2015-05-27, 08:15:04,VALID,918.831,VALID,0,VALID,93.3259,VALID,173.517,VALID,21.4177,VALID,169,VALID,0.686719,
2015-05-27, 08:16:04,VALID,918.859,VALID,0,VALID,92.5254,VALID,176.311,VALID,21.4372,VALID,133,VALID,0.626953,
2015-05-27, 08:17:04,VALID,918.841,VALID,0,VALID,91.0312,VALID,178.675,VALID,21.4177,VALID,144,VALID,0.851172,
2015-05-27, 08:18:04,VALID,918.839,VALID,0,VALID,92.2128,VALID,181.146,VALID,21.4762,VALID,180,VALID,1.06562,
2015-05-27, 08:19:04,VALID,918.827,VALID,0,VALID,91.0083,VALID,183.295,VALID,21.4762,VALID,167,VALID,1.01523,
2015-05-27, 08:20:04,VALID,918.819,VALID,0,VALID,92.0223,VALID,184.476,VALID,21.4957,VALID,146,VALID,0.889453,
2015-05-27, 08:21:04,VALID,918.841,VALID,0,VALID,90.7873,VALID,186.518,VALID,21.5347,VALID,143,VALID,1.58164,
2015-05-27, 08:22:04,VALID,918.838,VALID,0,VALID,90.4595,VALID,189.204,VALID,21.5932,VALID,142,VALID,1.50625,
2015-05-27, 08:23:04,VALID,918.821,VALID,0,VALID,90.5128,VALID,192.32,VALID,21.6323,VALID,162,VALID,1.06602,
2015-05-27, 08:24:04,VALID,918.806,VALID,0,VALID,89.5599,VALID,196.188,VALID,21.7103,VALID,169,VALID,0.717969,
2015-05-27, 08:25:04,VALID,918.799,VALID,0,VALID,88.3478,VALID,201.022,VALID,21.7477,VALID,152,VALID,0.844141,
2015-05-27, 08:26:04,VALID,918.783,VALID,0,VALID,88.3935,VALID,208.221,VALID,21.8469,VALID,162,VALID,0.863281,
2015-05-27, 08:27:04,VALID,918.777,VALID,0,VALID,87.837,VALID,216.172,VALID,21.8859,VALID,151,VALID,1.22695,
2015-05-27, 08:28:04,VALID,918.8,VALID,0,VALID,87.8904,VALID,226.271,VALID,21.9249,VALID,158,VALID,0.665234,
2015-05-27, 08:29:04,VALID,918.783,VALID,0,VALID,87.1128,VALID,238.197,VALID,21.9428,VALID,145,VALID,0.882422,
2015-05-27, 08:30:04,VALID,918.762,VALID,0,VALID,87.3872,VALID,249.371,VALID,21.9818,VALID,157,VALID,1.20234,
2015-05-27, 08:31:04,VALID,918.748,VALID,0,VALID,87.3491,VALID,263.875,VALID,22.042,VALID,152,VALID,0.635547,
2015-05-27, 08:32:04,VALID,918.769,VALID,0,VALID,87.1738,VALID,279.132,VALID,22.0794,VALID,130,VALID,1.08125,
2015-05-27, 08:33:04,VALID,918.758,VALID,0,VALID,86.8993,VALID,290.628,VALID,22.1786,VALID,149,VALID,1.30039,
2015-05-27, 08:34:04,VALID,918.773,VALID,0,VALID,86.4572,VALID,307.711,VALID,22.2354,VALID,157,VALID,1.16875,
2015-05-27, 08:35:04,VALID,918.776,VALID,0,VALID,85.9616,VALID,323.72,VALID,22.3525,VALID,153,VALID,0.808984,
2015-05-27, 08:36:04,VALID,918.761,VALID,0,VALID,85.7101,VALID,336.613,VALID,22.4696,VALID,141,VALID,1.47344,
2015-05-27, 08:37:04,VALID,918.722,VALID,0,VALID,83.8347,VALID,345.638,VALID,22.5477,VALID,165,VALID,1.38789,
2015-05-27, 08:38:04,VALID,918.758,VALID,0,VALID,84.1396,VALID,355.953,VALID,22.686,VALID,140,VALID,1.81445,
2015-05-27, 08:39:04,VALID,918.728,VALID,0,VALID,83.8118,VALID,363.473,VALID,22.8014,VALID,150,VALID,1.25625,
2015-05-27, 08:40:04,VALID,918.74,VALID,0,VALID,83.1334,VALID,362.292,VALID,22.9575,VALID,154,VALID,1.4668,
2015-05-27, 08:41:04,VALID,918.724,VALID,0,VALID,83.4002,VALID,362.721,VALID,23.0941,VALID,148,VALID,1.94258,
2015-05-27, 08:42:04,VALID,918.702,VALID,0,VALID,83.5221,VALID,368.416,VALID,23.1739,VALID,133,VALID,1.31328,
2015-05-27, 08:43:04,VALID,918.713,VALID,0,VALID,81.2809,VALID,373.465,VALID,23.2325,VALID,137,VALID,2.13242,
2015-05-27, 08:44:04,VALID,918.701,VALID,0,VALID,81.3952,VALID,374.11,VALID,23.2502,VALID,146,VALID,1.39531,
2015-05-27, 08:45:04,VALID,918.744,VALID,0,VALID,81.3876,VALID,366.267,VALID,23.3496,VALID,152,VALID,1.57773,
2015-05-27, 08:46:04,VALID,918.704,VALID,0,VALID,81.2732,VALID,365.407,VALID,23.3478,VALID,147,VALID,2.08477,
2015-05-27, 08:47:04,VALID,918.721,VALID,0,VALID,81.967,VALID,362.506,VALID,23.4472,VALID,94,VALID,0.901172,
2015-05-27, 08:48:04,VALID,918.696,VALID,0,VALID,80.671,VALID,351.118,VALID,23.5821,VALID,156,VALID,1.31641,
2015-05-27, 08:49:04,VALID,918.695,VALID,0,VALID,80.6634,VALID,365.085,VALID,23.6406,VALID,138,VALID,1.34844,
2015-05-27, 08:50:04,VALID,918.667,VALID,0,VALID,79.1311,VALID,371.531,VALID,23.6211,VALID,140,VALID,1.78398,
2015-05-27, 08:51:04,VALID,918.686,VALID,0,VALID,78.7041,VALID,379.482,VALID,23.6797,VALID,151,VALID,1.93398,
2015-05-27, 08:52:04,VALID,918.642,VALID,0,VALID,79.6876,VALID,378.408,VALID,23.7187,VALID,133,VALID,0.847266,
2015-05-27, 08:53:04,VALID,918.618,VALID,0,VALID,77.9799,VALID,364.978,VALID,23.7755,VALID,161,VALID,1.36797,
2015-05-27, 08:54:04,VALID,918.665,VALID,0,VALID,77.9952,VALID,364.225,VALID,23.8554,VALID,157,VALID,1.53203,
2015-05-27, 08:55:04,VALID,918.652,VALID,0,VALID,78.3382,VALID,375.185,VALID,23.834,VALID,125,VALID,1.62383,
2015-05-27, 08:56:04,VALID,918.669,VALID,0,VALID,79.5427,VALID,377.011,VALID,23.8749,VALID,147,VALID,1.65703,
2015-05-27, 08:57:04,VALID,918.654,VALID,0,VALID,79.3445,VALID,388.722,VALID,23.8944,VALID,159,VALID,1.85234,
2015-05-27, 08:58:04,VALID,918.645,VALID,0,VALID,79.0929,VALID,394.739,VALID,23.8749,VALID,151,VALID,1.04062,
2015-05-27, 08:59:04,VALID,918.621,VALID,0,VALID,79.0396,VALID,410.21,VALID,23.8926,VALID,143,VALID,1.75039,
2015-05-27, 09:00:04,VALID,918.626,VALID,0,VALID,77.9494,VALID,416.979,VALID,23.9725,VALID,151,VALID,1.97461,
2015-05-27, 09:01:04,VALID,918.621,VALID,0,VALID,78.5974,VALID,424.393,VALID,24.0701,VALID,157,VALID,1.32422,
2015-05-27, 09:02:04,VALID,918.622,VALID,0,VALID,76.2723,VALID,424.607,VALID,24.1873,VALID,191,VALID,2.57148,
2015-05-27, 09:03:04,VALID,918.624,VALID,0,VALID,77.7665,VALID,423.533,VALID,24.2654,VALID,119,VALID,1.6375,
2015-05-27, 09:04:04,VALID,918.646,VALID,0,VALID,77.027,VALID,427.723,VALID,24.1269,VALID,147,VALID,2.09375,
2015-05-27, 09:05:04,VALID,918.627,VALID,0,VALID,78.2925,VALID,427.186,VALID,24.1659,VALID,155,VALID,0.692578,
2015-05-27, 09:06:04,VALID,918.657,VALID,0,VALID,78.0866,VALID,427.079,VALID,24.1677,VALID,140,VALID,2.60703,
2015-05-27, 09:07:04,VALID,918.639,VALID,0,VALID,77.3243,VALID,423.64,VALID,24.1482,VALID,155,VALID,2.86094,
2015-05-27, 09:08:04,VALID,918.655,VALID,0,VALID,77.8579,VALID,414.078,VALID,24.1677,VALID,155,VALID,1.80977,
2015-05-27, 09:09:04,VALID,918.636,VALID,0,VALID,77.0575,VALID,416.12,VALID,24.2477,VALID,158,VALID,1.78281,
2015-05-27, 09:10:04,VALID,918.632,VALID,0,VALID,77.3853,VALID,417.624,VALID,24.3044,VALID,142,VALID,1.66289,
2015-05-27, 09:11:04,VALID,918.638,VALID,0,VALID,76.2723,VALID,401.937,VALID,24.3044,VALID,162,VALID,1.99531,
2015-05-27, 09:12:04,VALID,918.634,VALID,0,VALID,77.1413,VALID,415.153,VALID,24.3044,VALID,162,VALID,1.51406,
2015-05-27, 09:13:04,VALID,918.666,VALID,0,VALID,75.8149,VALID,416.227,VALID,24.3044,VALID,138,VALID,2.54453,
2015-05-27, 09:14:04,VALID,918.618,VALID,0,VALID,76.6153,VALID,419.773,VALID,24.2245,VALID,141,VALID,2.27148,
2015-05-27, 09:15:04,VALID,918.624,VALID,0,VALID,77.0194,VALID,426.004,VALID,24.2245,VALID,140,VALID,1.33945,
2015-05-27, 09:16:04,VALID,918.652,VALID,0,VALID,76.2799,VALID,435.137,VALID,24.3044,VALID,179,VALID,2.50938,
2015-05-27, 09:17:04,VALID,918.622,VALID,0,VALID,77.0194,VALID,429.765,VALID,24.4216,VALID,152,VALID,1.24727,
2015-05-27, 09:18:04,VALID,918.617,VALID,0,VALID,76.196,VALID,451.468,VALID,24.5778,VALID,170,VALID,0.895703,
2015-05-27, 09:19:04,VALID,918.609,VALID,0,VALID,76.0359,VALID,447.063,VALID,24.6345,VALID,152,VALID,1.46758,
2015-05-27, 09:20:04,VALID,918.567,VALID,0,VALID,74.801,VALID,446.955,VALID,24.6735,VALID,206,VALID,1.31133,
2015-05-27, 09:21:04,VALID,918.609,VALID,0,VALID,73.627,VALID,417.839,VALID,24.7321,VALID,180,VALID,1.82344,
2015-05-27, 09:22:04,VALID,918.602,VALID,0,VALID,73.4592,VALID,367.449,VALID,24.7516,VALID,168,VALID,0.582812,
2015-05-27, 09:23:04,VALID,918.579,VALID,0,VALID,74.0081,VALID,344.456,VALID,24.7907,VALID,176,VALID,1.15859,
2015-05-27, 09:24:04,VALID,918.606,VALID,0,VALID,75.4185,VALID,367.341,VALID,24.8883,VALID,180,VALID,0.917969,
2015-05-27, 09:25:04,VALID,918.595,VALID,0,VALID,73.4364,VALID,388.83,VALID,24.8492,VALID,124,VALID,2.1543,
2015-05-27, 09:26:04,VALID,918.62,VALID,0,VALID,75.144,VALID,408.599,VALID,24.8492,VALID,181,VALID,1.36172,
2015-05-27, 09:27:04,VALID,918.605,VALID,0,VALID,71.7516,VALID,458.774,VALID,24.8492,VALID,175,VALID,2.42734,
2015-05-27, 09:28:04,VALID,918.622,VALID,0,VALID,73.6727,VALID,485.634,VALID,24.8492,VALID,173,VALID,2.21406,
2015-05-27, 09:29:04,VALID,918.652,VALID,0,VALID,75.9902,VALID,505.618,VALID,24.8688,VALID,132,VALID,1.93164,
2015-05-27, 09:30:04,VALID,918.67,VALID,0,VALID,72.2242,VALID,514.536,VALID,24.9078,VALID,127,VALID,2.25234,
2015-05-27, 09:31:04,VALID,918.663,VALID,0,VALID,71.0197,VALID,518.296,VALID,24.8492,VALID,129,VALID,1.76055,
2015-05-27, 09:32:04,VALID,918.646,VALID,0,VALID,74.2826,VALID,528.61,VALID,24.9469,VALID,52,VALID,1.46445,
2015-05-27, 09:33:04,VALID,918.666,VALID,0,VALID,70.4937,VALID,518.726,VALID,24.9469,VALID,130,VALID,2.95937,
2015-05-27, 09:34:04,VALID,918.658,VALID,0,VALID,73.0781,VALID,522.379,VALID,24.9469,VALID,96,VALID,0.948438,
2015-05-27, 09:35:04,VALID,918.652,VALID,0,VALID,71.6601,VALID,518.833,VALID,25.025,VALID,139,VALID,1.96602,
2015-05-27, 09:36:04,VALID,918.64,VALID,0,VALID,72.7198,VALID,529.148,VALID,25.0426,VALID,151,VALID,1.42305,
2015-05-27, 09:37:04,VALID,918.647,VALID,0,VALID,73.7032,VALID,521.734,VALID,25.1207,VALID,127,VALID,2.02031,
2015-05-27, 09:38:04,VALID,918.667,VALID,0,VALID,72.1556,VALID,533.553,VALID,25.1226,VALID,143,VALID,3.4625,
2015-05-27, 09:39:04,VALID,918.661,VALID,0,VALID,72.1023,VALID,530.974,VALID,25.0055,VALID,132,VALID,2.28125,
2015-05-27, 09:40:04,VALID,918.674,VALID,0,VALID,75.6777,VALID,534.197,VALID,24.945,VALID,119,VALID,0.88125,
2015-05-27, 09:41:04,VALID,918.665,VALID,0,VALID,72.9485,VALID,532.586,VALID,25.1031,VALID,130,VALID,1.68867,
2015-05-27, 09:42:04,VALID,918.68,VALID,0,VALID,72.4529,VALID,541.611,VALID,25.2007,VALID,136,VALID,1.30859,
2015-05-27, 09:43:04,VALID,918.669,VALID,0,VALID,71.6677,VALID,536.776,VALID,25.2379,VALID,136,VALID,2.21641,
2015-05-27, 09:44:04,VALID,918.664,VALID,0,VALID,70.7834,VALID,538.71,VALID,25.2379,VALID,163,VALID,1.6543,
2015-05-27, 09:45:04,VALID,918.663,VALID,0,VALID,71.2332,VALID,555.578,VALID,25.2183,VALID,141,VALID,2.79492,
2015-05-27, 09:46:04,VALID,918.63,VALID,0,VALID,69.556,VALID,563.207,VALID,25.1793,VALID,136,VALID,1.47734,
2015-05-27, 09:47:04,VALID,918.644,VALID,0,VALID,72.1709,VALID,576.422,VALID,25.2183,VALID,142,VALID,1.79609,
2015-05-27, 09:48:04,VALID,918.64,VALID,0,VALID,69.1444,VALID,576.959,VALID,25.1988,VALID,126,VALID,3.18633,
2015-05-27, 09:49:04,VALID,918.612,VALID,0,VALID,70.1888,VALID,584.158,VALID,25.1793,VALID,177,VALID,2.39297,
2015-05-27, 09:50:04,VALID,918.648,VALID,0,VALID,70.9435,VALID,602.637,VALID,25.316,VALID,157,VALID,2.12773,
2015-05-27, 09:51:04,VALID,918.649,VALID,0,VALID,71.5229,VALID,596.836,VALID,25.4136,VALID,142,VALID,1.5332,
2015-05-27, 09:52:04,VALID,918.684,VALID,0,VALID,69.8457,VALID,589.207,VALID,25.4917,VALID,164,VALID,1.71914,
2015-05-27, 09:53:04,VALID,918.683,VALID,0,VALID,70.3413,VALID,576.744,VALID,25.5113,VALID,158,VALID,1.72227,
2015-05-27, 09:54:04,VALID,918.664,VALID,0,VALID,68.5345,VALID,569.331,VALID,25.5503,VALID,145,VALID,2.63906,
2015-05-27, 09:55:04,VALID,918.694,VALID,0,VALID,69.0605,VALID,358.639,VALID,25.4136,VALID,174,VALID,2.54336,
2015-05-27, 09:56:04,VALID,918.714,VALID,0,VALID,70.9054,VALID,291.703,VALID,25.4722,VALID,143,VALID,0.177734,
2015-05-27, 09:57:04,VALID,918.73,VALID,0,VALID,70.7453,VALID,400.433,VALID,25.4312,VALID,153,VALID,0.239063,
2015-05-27, 09:58:04,VALID,918.708,VALID,0,VALID,69.8229,VALID,460.493,VALID,25.4331,VALID,170,VALID,0.421875,
2015-05-27, 09:59:04,VALID,918.736,VALID,0,VALID,71.7135,VALID,491.006,VALID,25.4507,VALID,137,VALID,0.0660156,
2015-05-27, 10:00:04,VALID,918.708,VALID,0,VALID,70.4404,VALID,505.081,VALID,25.4331,VALID,154,VALID,1.90352,
2015-05-27, 10:01:04,VALID,918.742,VALID,0,VALID,70.0287,VALID,494.981,VALID,25.4117,VALID,158,VALID,1.51719,
2015-05-27, 10:02:04,VALID,918.758,VALID,0,VALID,69.2816,VALID,490.039,VALID,25.4722,VALID,143,VALID,1.49102,
2015-05-27, 10:03:04,VALID,918.731,VALID,0,VALID,69.8,VALID,493.047,VALID,25.3726,VALID,135,VALID,0.523047,
2015-05-27, 10:04:04,VALID,918.736,VALID,0,VALID,70.5547,VALID,485.419,VALID,25.4331,VALID,157,VALID,0.160938,
2015-05-27, 10:05:04,VALID,918.728,VALID,0,VALID,69.6628,VALID,526.354,VALID,25.4331,VALID,115,VALID,0.441406,
2015-05-27, 10:06:04,VALID,918.72,VALID,0,VALID,69.7161,VALID,498.849,VALID,25.3941,VALID,166,VALID,0.471875,
2015-05-27, 10:07:04,VALID,918.706,VALID,0,VALID,68.9919,VALID,508.197,VALID,25.4527,VALID,181,VALID,2.03242,
2015-05-27, 10:08:04,VALID,918.711,VALID,0,VALID,71.8888,VALID,529.577,VALID,25.6109,VALID,132,VALID,0.0148437,
2015-05-27, 10:09:04,VALID,918.761,VALID,0,VALID,70.1507,VALID,577.066,VALID,25.7261,VALID,169,VALID,0,
2015-05-27, 10:10:04,VALID,918.745,VALID,0,VALID,72.4529,VALID,482.411,VALID,25.8628,VALID,126,VALID,0,
2015-05-27, 10:11:04,VALID,918.737,VALID,0,VALID,71.4924,VALID,610.158,VALID,25.982,VALID,132,VALID,1.31328,
2015-05-27, 10:12:04,VALID,918.73,VALID,0,VALID,70.8825,VALID,625.63,VALID,25.9995,VALID,123,VALID,0,
2015-05-27, 10:13:04,VALID,918.688,VALID,0,VALID,68.3287,VALID,602.637,VALID,25.8999,VALID,105,VALID,1.36523,
2015-05-27, 10:14:04,VALID,918.681,VALID,0,VALID,71.5839,VALID,525.817,VALID,25.8628,VALID,107,VALID,0.0753906,
2015-05-27, 10:15:04,VALID,918.679,VALID,0,VALID,69.8381,VALID,586.414,VALID,25.9409,VALID,141,VALID,0.117578,
2015-05-27, 10:16:04,VALID,918.67,VALID,0,VALID,69.9448,VALID,589.959,VALID,25.98,VALID,164,VALID,0,
2015-05-27, 10:17:04,VALID,918.65,VALID,0,VALID,68.9157,VALID,576.314,VALID,26.019,VALID,122,VALID,1.04648,
2015-05-27, 10:18:04,VALID,918.659,VALID,0,VALID,69.678,VALID,584.802,VALID,25.9214,VALID,103,VALID,1.61953,
2015-05-27, 10:19:04,VALID,918.668,VALID,0,VALID,70.3717,VALID,595.009,VALID,25.8628,VALID,115,VALID,2.96445,
2015-05-27, 10:20:04,VALID,918.601,VALID,0,VALID,72.5368,VALID,562.992,VALID,25.8237,VALID,105,VALID,0.0289063,
2015-05-27, 10:21:04,VALID,918.618,VALID,0,VALID,71.4619,VALID,519.156,VALID,25.9409,VALID,75,VALID,0,
2015-05-27, 10:22:04,VALID,918.579,VALID,0,VALID,69.4265,VALID,487.998,VALID,26.0972,VALID,60,VALID,2.22461,
2015-05-27, 10:23:04,VALID,918.568,VALID,0,VALID,67.4749,VALID,508.949,VALID,26.0776,VALID,56,VALID,1.77305,
2015-05-27, 10:24:04,VALID,918.595,VALID,0,VALID,70.852,VALID,534.842,VALID,26.0386,VALID,76,VALID,0.733203,
2015-05-27, 10:25:04,VALID,918.575,VALID,0,VALID,71.1798,VALID,510.56,VALID,26.0776,VALID,130,VALID,0.155469,
2015-05-27, 10:26:04,VALID,918.586,VALID,0,VALID,71.8964,VALID,542.255,VALID,26.1167,VALID,135,VALID,0.0105469,
2015-05-27, 10:27:04,VALID,918.579,VALID,0,VALID,70.1888,VALID,549.669,VALID,26.1733,VALID,73,VALID,1.91758,